SHT4A EGLL-EGAC

Flight info

Callsign SHT4A
Flight time 0h 51m
Altitude 36000
Route UMLAT T418 WELIN T420 TNT UL28 RODOL UM65 TENSO L603 BELOX DCT REMSI DCT NINEB M148 MAGEE
Aircraft A320/M-SDE3FGHIRWY/LB1

Departure

Time 2026-04-18 07:06
Airport London Heathrow Airport (EGLL)

Arrival

Time 2026-04-18 07:58
Airport George Best Belfast City Airport (EGAC)
Time Latitude Longitude Altitude Speed Heading
2026-04-18 06:27 51.47404 -0.48891 89 ft 0 kts 179°
2026-04-18 06:54 51.47417 -0.48891 90 ft 4 kts 179°
2026-04-18 06:54 51.47444 -0.48891 88 ft 4 kts 179°
2026-04-18 06:55 51.47470 -0.48892 86 ft 4 kts 166°
2026-04-18 06:55 51.47493 -0.48911 90 ft 4 kts 135°
2026-04-18 06:55 51.47509 -0.48936 90 ft 1 kts 134°
2026-04-18 06:55 51.47509 -0.48937 90 ft 0 kts 134°
2026-04-18 06:58 51.47506 -0.48932 91 ft 2 kts 132°
2026-04-18 06:58 51.47491 -0.48886 90 ft 7 kts 108°
2026-04-18 06:58 51.47486 -0.48783 89 ft 11 kts 91°
2026-04-18 06:58 51.47487 -0.48641 88 ft 14 kts 89°
2026-04-18 06:59 51.47492 -0.48513 87 ft 10 kts 71°
2026-04-18 06:59 51.47557 -0.48470 88 ft 12 kts 18°
2026-04-18 06:59 51.47576 -0.48338 87 ft 14 kts 91°
2026-04-18 06:59 51.47578 -0.48161 88 ft 17 kts 88°
2026-04-18 07:00 51.47580 -0.48027 88 ft 19 kts 89°
2026-04-18 07:00 51.47581 -0.47796 88 ft 22 kts 90°
2026-04-18 07:00 51.47581 -0.47535 88 ft 25 kts 89°
2026-04-18 07:00 51.47582 -0.47248 90 ft 27 kts 90°
2026-04-18 07:01 51.47582 -0.46942 90 ft 24 kts 90°
2026-04-18 07:01 51.47592 -0.46704 86 ft 22 kts 90°
2026-04-18 07:01 51.47592 -0.46443 86 ft 25 kts 90°
2026-04-18 07:01 51.47593 -0.46153 86 ft 27 kts 90°
2026-04-18 07:02 51.47595 -0.45848 90 ft 25 kts 90°
2026-04-18 07:02 51.47596 -0.45558 86 ft 27 kts 90°
2026-04-18 07:02 51.47597 -0.45246 86 ft 27 kts 90°
2026-04-18 07:02 51.47598 -0.44976 86 ft 25 kts 90°
2026-04-18 07:03 51.47599 -0.44682 86 ft 27 kts 90°
2026-04-18 07:03 51.47600 -0.44450 86 ft 21 kts 89°
2026-04-18 07:03 51.47592 -0.44228 87 ft 19 kts 91°
2026-04-18 07:03 51.47592 -0.43997 86 ft 22 kts 90°
2026-04-18 07:04 51.47593 -0.43828 86 ft 11 kts 89°
2026-04-18 07:04 51.47638 -0.43768 88 ft 9 kts 354°
2026-04-18 07:04 51.47708 -0.43821 86 ft 13 kts 332°
2026-04-18 07:04 51.47760 -0.43882 86 ft 9 kts 301°
2026-04-18 07:05 51.47766 -0.43955 86 ft 0 kts 270°
2026-04-18 07:05 51.47767 -0.44304 88 ft 67 kts 270°
2026-04-18 07:06 51.47764 -0.45382 86 ft 124 kts 269°
2026-04-18 07:06 51.47755 -0.47025 104 ft 166 kts 269°
2026-04-18 07:06 51.47750 -0.48876 700 ft 164 kts 270°
2026-04-18 07:06 51.47750 -0.50699 1320 ft 165 kts 270°
2026-04-18 07:07 51.47752 -0.52625 1685 ft 180 kts 270°
2026-04-18 07:07 51.47739 -0.54710 2104 ft 194 kts 269°
2026-04-18 07:07 51.47783 -0.56944 2477 ft 212 kts 282°
2026-04-18 07:07 51.48410 -0.59238 2761 ft 240 kts 302°
2026-04-18 07:08 51.49442 -0.61509 3212 ft 263 kts 309°
2026-04-18 07:08 51.50653 -0.63793 4004 ft 267 kts 306°
2026-04-18 07:08 51.51671 -0.66234 5048 ft 264 kts 307°
2026-04-18 07:08 51.53089 -0.68054 5490 ft 265 kts 339°
2026-04-18 07:09 51.54906 -0.68455 5699 ft 266 kts 359°
2026-04-18 07:09 51.56754 -0.68508 5765 ft 266 kts 358°
2026-04-18 07:09 51.58602 -0.68599 5771 ft 265 kts 357°
2026-04-18 07:09 51.60442 -0.68734 5772 ft 265 kts 356°
2026-04-18 07:10 51.62286 -0.68901 5773 ft 265 kts 356°
2026-04-18 07:10 51.64127 -0.69088 5773 ft 265 kts 356°
2026-04-18 07:10 51.65943 -0.69282 5773 ft 265 kts 355°
2026-04-18 07:10 51.67786 -0.69482 5772 ft 265 kts 355°
2026-04-18 07:11 51.69628 -0.69690 5773 ft 265 kts 355°
2026-04-18 07:11 51.71470 -0.69896 5773 ft 265 kts 355°
2026-04-18 07:11 51.73323 -0.70106 5997 ft 271 kts 355°
2026-04-18 07:11 51.75198 -0.70322 6938 ft 270 kts 355°
2026-04-18 07:12 51.77076 -0.70536 7800 ft 272 kts 355°
2026-04-18 07:12 51.78974 -0.70751 8611 ft 275 kts 355°
2026-04-18 07:12 51.80895 -0.70966 9403 ft 278 kts 355°
2026-04-18 07:12 51.82835 -0.71185 10150 ft 283 kts 355°
2026-04-18 07:13 51.84874 -0.71414 10431 ft 305 kts 355°
2026-04-18 07:13 51.87062 -0.71660 10710 ft 323 kts 355°
2026-04-18 07:13 51.89334 -0.71916 11310 ft 330 kts 355°
2026-04-18 07:13 51.91636 -0.72172 11980 ft 333 kts 355°
2026-04-18 07:14 51.93960 -0.72429 12646 ft 337 kts 355°
2026-04-18 07:14 51.96310 -0.72695 13296 ft 340 kts 355°
2026-04-18 07:14 51.98680 -0.72965 13935 ft 343 kts 355°
2026-04-18 07:14 52.01058 -0.73407 14554 ft 346 kts 348°
2026-04-18 07:15 52.03369 -0.74543 15150 ft 349 kts 337°
2026-04-18 07:15 52.05556 -0.76296 15732 ft 352 kts 332°
2026-04-18 07:15 52.07738 -0.78128 16310 ft 355 kts 332°
2026-04-18 07:15 52.09944 -0.79967 16884 ft 358 kts 333°
2026-04-18 07:16 52.12170 -0.81815 17447 ft 361 kts 333°
2026-04-18 07:16 52.14412 -0.83675 17999 ft 364 kts 333°
2026-04-18 07:16 52.16677 -0.85556 18548 ft 367 kts 333°
2026-04-18 07:16 52.18958 -0.87456 19120 ft 370 kts 333°
2026-04-18 07:17 52.21254 -0.89375 19680 ft 373 kts 332°
2026-04-18 07:17 52.23572 -0.91320 20235 ft 376 kts 332°
2026-04-18 07:17 52.25902 -0.93279 20769 ft 379 kts 332°
2026-04-18 07:17 52.28255 -0.95258 21285 ft 382 kts 332°
2026-04-18 07:18 52.30626 -0.97250 21789 ft 385 kts 332°
2026-04-18 07:18 52.33015 -0.99254 22279 ft 388 kts 332°
2026-04-18 07:18 52.35423 -1.01277 22740 ft 391 kts 332°
2026-04-18 07:18 52.37849 -1.03319 23199 ft 393 kts 332°
2026-04-18 07:19 52.40290 -1.05372 23637 ft 396 kts 332°
2026-04-18 07:19 52.42745 -1.07445 24066 ft 398 kts 332°
2026-04-18 07:19 52.45215 -1.09535 24487 ft 401 kts 332°
2026-04-18 07:19 52.47702 -1.11643 24897 ft 403 kts 332°
2026-04-18 07:20 52.50204 -1.13767 25304 ft 406 kts 332°
2026-04-18 07:20 52.52718 -1.15905 25690 ft 408 kts 332°
2026-04-18 07:20 52.55247 -1.18060 26080 ft 410 kts 332°
2026-04-18 07:20 52.57786 -1.20225 26453 ft 413 kts 332°
2026-04-18 07:21 52.60344 -1.22405 26808 ft 415 kts 332°
2026-04-18 07:21 52.62913 -1.24594 27158 ft 417 kts 332°
2026-04-18 07:21 52.65500 -1.26803 27505 ft 419 kts 332°
2026-04-18 07:21 52.68089 -1.29017 27799 ft 417 kts 332°
2026-04-18 07:22 52.70649 -1.31272 27934 ft 420 kts 327°
2026-04-18 07:22 52.72913 -1.34321 28198 ft 423 kts 314°
2026-04-18 07:22 52.74934 -1.37870 28509 ft 426 kts 312°
2026-04-18 07:22 52.76910 -1.41527 28833 ft 428 kts 311°
2026-04-18 07:23 52.78847 -1.45262 29157 ft 430 kts 310°
2026-04-18 07:23 52.80770 -1.49057 29466 ft 432 kts 309°
2026-04-18 07:23 52.82699 -1.52880 29772 ft 434 kts 309°
2026-04-18 07:23 52.84640 -1.56708 30075 ft 435 kts 310°
2026-04-18 07:24 52.86599 -1.60540 30400 ft 436 kts 310°
2026-04-18 07:24 52.88562 -1.64358 30811 ft 435 kts 310°
2026-04-18 07:24 52.90523 -1.68165 31205 ft 434 kts 310°
2026-04-18 07:24 52.92479 -1.71969 31597 ft 433 kts 310°
2026-04-18 07:25 52.94434 -1.75774 31976 ft 433 kts 310°
2026-04-18 07:25 52.96382 -1.79577 32348 ft 432 kts 310°
2026-04-18 07:25 52.98323 -1.83381 32735 ft 432 kts 310°
2026-04-18 07:25 53.00260 -1.87182 33108 ft 431 kts 310°
2026-04-18 07:26 53.02196 -1.90978 33462 ft 431 kts 310°
2026-04-18 07:26 53.04129 -1.94770 33825 ft 430 kts 310°
2026-04-18 07:26 53.06064 -1.98572 34191 ft 430 kts 310°
2026-04-18 07:26 53.07988 -2.02366 34550 ft 429 kts 310°
2026-04-18 07:27 53.09901 -2.06153 34898 ft 428 kts 310°
2026-04-18 07:27 53.11812 -2.09943 35222 ft 427 kts 310°
2026-04-18 07:27 53.13717 -2.13728 35528 ft 427 kts 310°
2026-04-18 07:27 53.15626 -2.17520 35824 ft 426 kts 310°
2026-04-18 07:28 53.17530 -2.21299 35982 ft 427 kts 310°
2026-04-18 07:28 53.19447 -2.25107 36009 ft 430 kts 310°
2026-04-18 07:28 53.23302 -2.32779 36009 ft 432 kts 309°
2026-04-18 07:29 53.27146 -2.40480 36009 ft 432 kts 309°
2026-04-18 07:29 53.30987 -2.48194 36008 ft 432 kts 309°
2026-04-18 07:30 53.34821 -2.55916 36012 ft 432 kts 309°
2026-04-18 07:30 53.38658 -2.63666 36017 ft 432 kts 309°
2026-04-18 07:31 53.42491 -2.71441 36023 ft 433 kts 309°
2026-04-18 07:31 53.46293 -2.79175 36024 ft 433 kts 309°
2026-04-18 07:32 53.50115 -2.86980 36026 ft 433 kts 309°
2026-04-18 07:32 53.53935 -2.94783 36026 ft 432 kts 309°
2026-04-18 07:33 53.57752 -3.02604 36027 ft 432 kts 309°
2026-04-18 07:33 53.61527 -3.10476 36026 ft 432 kts 307°
2026-04-18 07:34 53.63348 -3.14498 35852 ft 432 kts 307°
2026-04-18 07:34 53.65157 -3.18619 35606 ft 431 kts 306°
2026-04-18 07:34 53.66900 -3.22648 35365 ft 432 kts 306°
2026-04-18 07:34 53.68670 -3.26751 35110 ft 432 kts 306°
2026-04-18 07:35 53.70444 -3.30848 34861 ft 433 kts 306°
2026-04-18 07:35 53.72228 -3.34941 34611 ft 433 kts 306°
2026-04-18 07:35 53.74021 -3.39036 34361 ft 434 kts 306°
2026-04-18 07:35 53.75820 -3.43130 34115 ft 434 kts 306°
2026-04-18 07:36 53.77615 -3.47230 33982 ft 434 kts 306°
2026-04-18 07:36 53.79411 -3.51342 33708 ft 435 kts 306°
2026-04-18 07:36 53.81205 -3.55456 33332 ft 433 kts 306°
2026-04-18 07:36 53.82984 -3.59549 32957 ft 431 kts 306°
2026-04-18 07:37 53.84753 -3.63631 32491 ft 428 kts 306°
2026-04-18 07:37 53.86507 -3.67683 31987 ft 425 kts 306°
2026-04-18 07:37 53.88250 -3.71710 31490 ft 422 kts 306°
2026-04-18 07:37 53.89975 -3.75711 30990 ft 419 kts 306°
2026-04-18 07:38 53.91683 -3.79686 30489 ft 415 kts 306°
2026-04-18 07:38 53.93377 -3.83631 29989 ft 412 kts 306°
2026-04-18 07:38 53.95062 -3.87550 29492 ft 409 kts 306°
2026-04-18 07:38 53.96732 -3.91441 28988 ft 406 kts 306°
2026-04-18 07:39 53.98390 -3.95311 28487 ft 404 kts 306°
2026-04-18 07:39 54.00036 -3.99156 27985 ft 401 kts 306°
2026-04-18 07:39 54.01667 -4.02972 27396 ft 395 kts 306°
2026-04-18 07:39 54.03270 -4.06733 26770 ft 391 kts 306°
2026-04-18 07:40 54.04857 -4.10463 26144 ft 387 kts 306°
2026-04-18 07:40 54.06426 -4.14158 25518 ft 384 kts 306°
2026-04-18 07:40 54.07982 -4.17823 24809 ft 379 kts 306°
2026-04-18 07:40 54.09518 -4.21440 24251 ft 376 kts 306°
2026-04-18 07:41 54.11058 -4.25073 23756 ft 378 kts 306°
2026-04-18 07:41 54.12595 -4.28707 23321 ft 377 kts 306°
2026-04-18 07:41 54.14116 -4.32312 23001 ft 372 kts 305°
2026-04-18 07:41 54.15613 -4.35868 22746 ft 368 kts 305°
2026-04-18 07:42 54.17101 -4.39407 22502 ft 366 kts 305°
2026-04-18 07:42 54.18582 -4.42932 22239 ft 365 kts 305°
2026-04-18 07:42 54.20062 -4.46465 21735 ft 366 kts 305°
2026-04-18 07:42 54.21540 -4.50001 21238 ft 365 kts 305°
2026-04-18 07:43 54.23020 -4.53539 20628 ft 367 kts 305°
2026-04-18 07:43 54.24490 -4.57059 20000 ft 358 kts 305°
2026-04-18 07:43 54.25907 -4.60503 19519 ft 354 kts 304°
2026-04-18 07:43 54.27309 -4.63951 19007 ft 353 kts 304°
2026-04-18 07:44 54.28234 -4.66235 18675 ft 352 kts 304°
2026-04-18 07:44 54.29622 -4.69669 18237 ft 349 kts 304°
2026-04-18 07:44 54.31002 -4.73080 17734 ft 348 kts 304°
2026-04-18 07:44 54.32365 -4.76445 17219 ft 339 kts 304°
2026-04-18 07:45 54.33700 -4.79742 16626 ft 335 kts 304°
2026-04-18 07:45 54.35019 -4.83003 16227 ft 333 kts 304°
2026-04-18 07:45 54.36759 -4.87313 15860 ft 331 kts 304°
2026-04-18 07:45 54.37646 -4.89513 15582 ft 332 kts 304°
2026-04-18 07:46 54.38958 -4.92771 15078 ft 332 kts 304°
2026-04-18 07:46 54.40270 -4.96028 14579 ft 331 kts 304°
2026-04-18 07:46 54.41578 -4.99282 14068 ft 331 kts 304°
2026-04-18 07:46 54.42879 -5.02530 13579 ft 330 kts 304°
2026-04-18 07:47 54.44182 -5.05779 13069 ft 329 kts 304°
2026-04-18 07:47 54.45479 -5.09002 12652 ft 326 kts 304°
2026-04-18 07:47 54.46755 -5.12162 12271 ft 316 kts 304°
2026-04-18 07:47 54.48000 -5.15233 11893 ft 312 kts 304°
2026-04-18 07:48 54.49241 -5.18292 11518 ft 311 kts 304°
2026-04-18 07:48 54.50512 -5.21274 11141 ft 309 kts 310°
2026-04-18 07:48 54.52064 -5.23809 10641 ft 306 kts 322°
2026-04-18 07:48 54.53725 -5.26043 10158 ft 298 kts 321°
2026-04-18 07:49 54.55315 -5.28190 9914 ft 281 kts 321°
2026-04-18 07:49 54.56845 -5.30265 9794 ft 280 kts 321°
2026-04-18 07:49 54.58372 -5.32339 9666 ft 279 kts 321°
2026-04-18 07:49 54.59900 -5.34421 9462 ft 281 kts 321°
2026-04-18 07:50 54.61421 -5.36494 9209 ft 277 kts 321°
2026-04-18 07:50 54.62935 -5.38559 8716 ft 278 kts 321°
2026-04-18 07:50 54.64446 -5.40624 8089 ft 276 kts 321°
2026-04-18 07:50 54.65950 -5.42678 7461 ft 275 kts 321°
2026-04-18 07:51 54.67444 -5.44723 6835 ft 273 kts 321°
2026-04-18 07:51 54.68931 -5.46760 6203 ft 272 kts 321°
2026-04-18 07:51 54.70408 -5.48784 5575 ft 270 kts 321°
2026-04-18 07:51 54.71877 -5.50801 4948 ft 269 kts 321°
2026-04-18 07:52 54.73335 -5.52812 4340 ft 267 kts 321°
2026-04-18 07:52 54.74756 -5.54773 4027 ft 256 kts 321°
2026-04-18 07:52 54.76104 -5.56633 3734 ft 244 kts 321°
2026-04-18 07:52 54.77395 -5.58472 3487 ft 238 kts 314°
2026-04-18 07:53 54.78256 -5.60818 3379 ft 227 kts 288°
2026-04-18 07:53 54.78460 -5.63408 3376 ft 212 kts 264°
2026-04-18 07:53 54.78091 -5.65854 3379 ft 210 kts 249°
2026-04-18 07:53 54.77430 -5.68093 3380 ft 210 kts 231°
2026-04-18 07:54 54.76350 -5.69782 3245 ft 210 kts 215°
2026-04-18 07:54 54.75156 -5.71216 3009 ft 208 kts 215°
2026-04-18 07:54 54.73968 -5.72644 2741 ft 207 kts 215°
2026-04-18 07:54 54.72788 -5.74066 2492 ft 204 kts 215°
2026-04-18 07:55 54.71667 -5.75416 2207 ft 187 kts 215°
2026-04-18 07:55 54.70648 -5.76642 1960 ft 170 kts 215°
2026-04-18 07:55 54.69722 -5.77756 1759 ft 153 kts 215°
2026-04-18 07:55 54.68886 -5.78762 1561 ft 143 kts 215°
2026-04-18 07:56 54.68082 -5.79728 1373 ft 139 kts 215°
2026-04-18 07:56 54.67293 -5.80676 1190 ft 137 kts 215°
2026-04-18 07:56 54.66511 -5.81615 1004 ft 137 kts 215°
2026-04-18 07:56 54.65733 -5.82554 805 ft 136 kts 215°
2026-04-18 07:57 54.64956 -5.83483 582 ft 136 kts 215°
2026-04-18 07:57 54.64182 -5.84402 388 ft 135 kts 215°
2026-04-18 07:57 54.63410 -5.85331 238 ft 135 kts 215°
2026-04-18 07:57 54.62635 -5.86263 91 ft 136 kts 214°
2026-04-18 07:58 54.61554 -5.87560 15 ft 25 kts 214°
2026-04-18 07:58 54.61402 -5.87738 13 ft 21 kts 214°
2026-04-18 07:58 54.61323 -5.87798 14 ft 10 kts 169°
2026-04-18 07:59 54.61273 -5.87700 15 ft 12 kts 125°
2026-04-18 07:59 54.61256 -5.87594 17 ft 6 kts 67°
2026-04-18 07:59 54.61293 -5.87549 19 ft 8 kts 31°
2026-04-18 07:59 54.61350 -5.87488 20 ft 11 kts 33°
2026-04-18 08:00 54.61408 -5.87388 21 ft 11 kts 53°
2026-04-18 08:00 54.61478 -5.87288 21 ft 15 kts 35°
2026-04-18 08:00 54.61535 -5.87218 21 ft 7 kts 44°
2026-04-18 08:00 54.61516 -5.87158 21 ft 6 kts 154°
2026-04-18 08:01 54.61501 -5.87146 23 ft 2 kts 155°
2026-04-18 08:01 54.61499 -5.87145 23 ft 0 kts 155°